Terug naar catalogus

ATLAS 5 CENTAUR DEB

ActiefHEO
NORAD 44683·DEBRIS·🇺🇸 United States

Gelanceerd Oct 17, 2018 vanaf Cape Canaveral Space Force Station

Loading…

Volgende Passages (komende 24 uur)

TLE

VersSource: Space-Track

Epoch: Sep 10, 2026, 18:16 UTC

1 44683U 18079AV  26253.76136644 -.00000201  00000-0  00000-0 0  9999
2 44683  13.4324  23.5343 4708058 339.7472   6.4210  1.83233341 52896

Volg ATLAS 5 CENTAUR DEB in realtime met AllMySat

Download on the App Store